Previsão horária em Abaytikau

Hoje, 30 Julho, Sexta-feira

Tempo Temperatura Precipitação Vento Pressão Humidade
00:00 +10°C° 0 mm 1 m/s 579 mmHg 90%
01:00 +9°C° 0 mm 1 m/s 578 mmHg 89%
02:00 +9°C° 0 mm 1 m/s 578 mmHg 88%
03:00 +8°C° 0 mm 1 m/s 578 mmHg 88%
04:00 +9°C° 0 mm 1 m/s 578 mmHg 86%
05:00 +10°C° 0 mm 1 m/s 579 mmHg 85%
06:00 +11°C° 0 mm 1 m/s 579 mmHg 84%
07:00 +12°C° 0 mm 1 m/s 579 mmHg 79%
08:00 +14°C° 0 mm 1 m/s 580 mmHg 73%
09:00 +15°C° 0 mm 1 m/s 580 mmHg 68%
10:00 +16°C° 0.1 mm 1 m/s 581 mmHg 68%
11:00 +16°C° 0.1 mm 1 m/s 581 mmHg 68%
12:00 +17°C° 0.1 mm 2 m/s 581 mmHg 67%
13:00 +16°C° 0.4 mm 1 m/s 581 mmHg 70%
14:00 +16°C° 0.4 mm 1 m/s 581 mmHg 73%
15:00 +16°C° 0.4 mm 1 m/s 580 mmHg 76%
16:00 +15°C° 0.4 mm 1 m/s 580 mmHg 78%
17:00 +15°C° 0.4 mm 1 m/s 580 mmHg 81%
18:00 +15°C° 0.4 mm 1 m/s 580 mmHg 83%
19:00 +14°C° 0.1 mm 1 m/s 580 mmHg 86%
20:00 +12°C° 0.1 mm 1 m/s 579 mmHg 88%
21:00 +11°C° 0.1 mm 1 m/s 579 mmHg 91%
22:00 +11°C° 0 mm 1 m/s 579 mmHg 91%
23:00 +10°C° 0 mm 1 m/s 578 mmHg 92%

Amanhã, 31 Julho, Sábado

Tempo Temperatura Precipitação Vento Pressão Humidade
00:00 +8°C° 0 mm 2 m/s 578 mmHg 93%
01:00 +8°C° 0 mm 2 m/s 578 mmHg 93%
02:00 +8°C° 0 mm 2 m/s 578 mmHg 92%
03:00 +8°C° 0 mm 2 m/s 577 mmHg 92%
04:00 +9°C° 0 mm 1 m/s 578 mmHg 90%
05:00 +10°C° 0 mm 1 m/s 578 mmHg 87%
06:00 +11°C° 0 mm 1 m/s 578 mmHg 85%
07:00 +13°C° 0 mm 1 m/s 579 mmHg 78%
08:00 +14°C° 0 mm 1 m/s 580 mmHg 71%
09:00 +16°C° 0 mm 1 m/s 580 mmHg 64%
10:00 +18°C° 0.2 mm 1 m/s 580 mmHg 64%
11:00 +17°C° 0.2 mm 2 m/s 581 mmHg 63%
12:00 +18°C° 0.2 mm 2 m/s 581 mmHg 63%
13:00 +18°C° 1 mm 2 m/s 581 mmHg 64%
14:00 +19°C° 1 mm 1 m/s 581 mmHg 66%
15:00 +18°C° 1 mm 1 m/s 581 mmHg 68%
16:00 +18°C° 0.9 mm 1 m/s 581 mmHg 72%
17:00 +16°C° 0.9 mm 1 m/s 580 mmHg 76%
18:00 +15°C° 0.9 mm 1 m/s 580 mmHg 81%
19:00 +14°C° 0.3 mm 1 m/s 580 mmHg 83%
20:00 +12°C° 0.3 mm 1 m/s 580 mmHg 86%
21:00 +10°C° 0.3 mm 2 m/s 579 mmHg 89%
22:00 +10°C° 0 mm 2 m/s 579 mmHg 90%
23:00 +9°C° 0 mm 2 m/s 579 mmHg 90%

Depois de amanhã, 1 Agosto, Domingo

Tempo Temperatura Precipitação Vento Pressão Humidade
00:00 +9°C° 0 mm 2 m/s 579 mmHg 90%
01:00 +9°C° 0 mm 2 m/s 579 mmHg 90%
02:00 +9°C° 0 mm 2 m/s 579 mmHg 91%
03:00 +9°C° 0 mm 2 m/s 579 mmHg 91%
04:00 +9°C° 0 mm 2 m/s 579 mmHg 89%
05:00 +11°C° 0 mm 1 m/s 579 mmHg 87%
06:00 +12°C° 0 mm 1 m/s 579 mmHg 86%
07:00 +13°C° 0 mm 1 m/s 580 mmHg 78%
08:00 +15°C° 0 mm 1 m/s 581 mmHg 71%
09:00 +18°C° 0 mm 1 m/s 581 mmHg 64%
10:00 +18°C° 0.1 mm 1 m/s 582 mmHg 62%
11:00 +19°C° 0.1 mm 1 m/s 582 mmHg 60%
12:00 +19°C° 0.1 mm 2 m/s 582 mmHg 58%
13:00 +19°C° 0.8 mm 1 m/s 582 mmHg 61%
14:00 +19°C° 0.8 mm 1 m/s 582 mmHg 64%
15:00 +19°C° 0.8 mm 1 m/s 582 mmHg 67%
16:00 +18°C° 1.2 mm 1 m/s 581 mmHg 70%
17:00 +16°C° 1.2 mm 1 m/s 581 mmHg 74%
18:00 +15°C° 1.2 mm 0 m/s 581 mmHg 78%
19:00 +14°C° 0.7 mm 1 m/s 581 mmHg 80%
20:00 +13°C° 0.7 mm 1 m/s 580 mmHg 83%
21:00 +10°C° 0.7 mm 2 m/s 580 mmHg 86%
22:00 +10°C° 0.2 mm 2 m/s 580 mmHg 87%
23:00 +10°C° 0.2 mm 2 m/s 580 mmHg 88%

2 Agosto, Segunda-feira

Tempo Temperatura Precipitação Vento Pressão Humidade
00:00 +10°C° 0.2 mm 2 m/s 580 mmHg 89%
01:00 +10°C° 0 mm 2 m/s 580 mmHg 89%
02:00 +10°C° 0 mm 2 m/s 580 mmHg 89%
03:00 +10°C° 0 mm 2 m/s 579 mmHg 89%
04:00 +10°C° 0 mm 2 m/s 580 mmHg 88%
05:00 +10°C° 0 mm 2 m/s 580 mmHg 87%
06:00 +12°C° 0 mm 2 m/s 580 mmHg 86%
07:00 +13°C° 0 mm 2 m/s 581 mmHg 80%
08:00 +15°C° 0 mm 1 m/s 581 mmHg 74%
09:00 +16°C° 0 mm 1 m/s 582 mmHg 67%
10:00 +18°C° 0.9 mm 1 m/s 582 mmHg 68%
11:00 +18°C° 0.9 mm 1 m/s 582 mmHg 68%
12:00 +18°C° 0.9 mm 1 m/s 582 mmHg 69%
13:00 +18°C° 1.5 mm 1 m/s 582 mmHg 70%
14:00 +18°C° 1.5 mm 1 m/s 582 mmHg 71%
15:00 +18°C° 1.5 mm 1 m/s 582 mmHg 71%
16:00 +16°C° 1.8 mm 1 m/s 582 mmHg 74%
17:00 +16°C° 1.8 mm 1 m/s 582 mmHg 76%
18:00 +15°C° 1.8 mm 1 m/s 582 mmHg 78%
19:00 +14°C° 0.8 mm 1 m/s 581 mmHg 78%
20:00 +14°C° 0.8 mm 1 m/s 581 mmHg 78%
21:00 +13°C° 0.8 mm 2 m/s 581 mmHg 78%
22:00 +12°C° 0 mm 2 m/s 580 mmHg 78%
23:00 +10°C° 0 mm 2 m/s 580 mmHg 78%

3 Agosto, Terça-feira

Tempo Temperatura Precipitação Vento Pressão Humidade
00:00 +9°C° 0 mm 2 m/s 580 mmHg 78%
01:00 +9°C° 0 mm 2 m/s 580 mmHg 77%
02:00 +9°C° 0 mm 2 m/s 579 mmHg 76%
03:00 +9°C° 0 mm 2 m/s 579 mmHg 75%
04:00 +9°C° 0 mm 2 m/s 580 mmHg 74%
05:00 +10°C° 0 mm 2 m/s 580 mmHg 73%
06:00 +12°C° 0 mm 1 m/s 581 mmHg 72%
07:00 +14°C° 0 mm 1 m/s 581 mmHg 67%
08:00 +15°C° 0 mm 1 m/s 582 mmHg 61%
09:00 +18°C° 0 mm 1 m/s 583 mmHg 56%
10:00 +19°C° 0.1 mm 1 m/s 583 mmHg 56%
11:00 +19°C° 0.1 mm 1 m/s 583 mmHg 56%
12:00 +19°C° 0.1 mm 2 m/s 583 mmHg 57%
13:00 +19°C° 0.3 mm 1 m/s 583 mmHg 59%
14:00 +19°C° 0.3 mm 1 m/s 583 mmHg 61%
15:00 +19°C° 0.3 mm 1 m/s 583 mmHg 63%
16:00 +19°C° 0.4 mm 1 m/s 583 mmHg 67%
17:00 +16°C° 0.4 mm 0 m/s 583 mmHg 71%
18:00 +16°C° 0.4 mm 0 m/s 582 mmHg 74%
19:00 +15°C° 0.1 mm 0 m/s 582 mmHg 75%
20:00 +15°C° 0.1 mm 1 m/s 582 mmHg 76%
21:00 +14°C° 0.1 mm 1 m/s 582 mmHg 77%
22:00 +14°C° 0 mm 1 m/s 582 mmHg 77%
23:00 +13°C° 0 mm 1 m/s 582 mmHg 76%

4 Agosto, Quarta-feira

Tempo Temperatura Precipitação Vento Pressão Humidade
00:00 +13°C° 0 mm 1 m/s 582 mmHg 76%
01:00 +13°C° 0 mm 1 m/s 582 mmHg 76%
02:00 +13°C° 0 mm 1 m/s 582 mmHg 75%
03:00 +12°C° 0 mm 2 m/s 581 mmHg 74%
04:00 +13°C° 0 mm 1 m/s 582 mmHg 74%
05:00 +13°C° 0 mm 1 m/s 582 mmHg 75%
06:00 +13°C° 0 mm 1 m/s 582 mmHg 75%
07:00 +15°C° 0 mm 1 m/s 583 mmHg 69%
08:00 +18°C° 0 mm 1 m/s 583 mmHg 63%
09:00 +19°C° 0 mm 1 m/s 584 mmHg 57%
10:00 +20°C° 0.3 mm 1 m/s 584 mmHg 56%
11:00 +20°C° 0.3 mm 1 m/s 584 mmHg 55%
12:00 +21°C° 0.3 mm 1 m/s 584 mmHg 54%
13:00 +21°C° 0.4 mm 1 m/s 584 mmHg 54%
14:00 +21°C° 0.4 mm 1 m/s 584 mmHg 54%
15:00 +21°C° 0.4 mm 1 m/s 584 mmHg 54%
16:00 +21°C° 0.3 mm 1 m/s 584 mmHg 58%
17:00 +20°C° 0.3 mm 1 m/s 584 mmHg 62%
18:00 +19°C° 0.3 mm 1 m/s 584 mmHg 66%
19:00 +18°C° 0.3 mm 1 m/s 583 mmHg 69%
20:00 +15°C° 0.3 mm 1 m/s 583 mmHg 73%
21:00 +13°C° 0.3 mm 1 m/s 582 mmHg 77%
22:00 +13°C° 0.1 mm 1 m/s 582 mmHg 74%
23:00 +13°C° 0.1 mm 1 m/s 582 mmHg 72%
Mostrar mais

Necessitamos do seu Consentimento

A Meteoprog e os seus Fornecedores de Serviços podem armazenar e aceder a dados pessoais como cookies, identificadores do dispositivo ou outras tecnologias semelhantes existentes no seu dispositivo e processar estes dados para personalizar conteúdos e anúncios, assim como funcionalidades nas redes sociais e análise de tráfego.

  • Armazenar e/ou aceder a informações no seu dispositivo

    Os cookies, identificadores do dispositivo ou outras informações podem ser armazenados ou acedidos no seu dispositivo, para os fins acima indicados.

  • Anúncios e conteúdos personalizados, medição de anúncios e conteúdos, dados sobre o público-alvo e desenvolvimento de produtos

    Os anúncios e os conteúdos podem ser personalizados com base num perfil. Podem ser adicionados dados adicionais para uma maior personalização dos anúncios e dos conteúdos. A eficácia dos anúncios e dos conteúdos pode ser medida. Podem ser obtidas informações sobre o público que visualizou os anúncios e os conteúdos. Estes dados podem ser usados para desenvolver ou melhorar sistemas, softwares ou a experiência do utilizador.

Ao clicar em "Eu concordo”, permitirá o uso de cookies, identificadores do dispositivo e web beacons mencionados ou outras tecnologias semelhantes. As configurações do navegador do seu dispositivo podem ser alteradas.

Para certos fins, podem ser invocados interesses legítimos ao invés de consentimento. Pode ler mais informação sobre este assunto na nossa Política de Privacidade e Cookies.